#timestamp,LO_Frequency,Hit,StdDev 
1545253215.6,286046999.6,N
1545253235.4,286046998.5,N
1545253255.3,286046998.6,N
1545253275.1,286046998.7,N
1545253295.9,286046998.2,N
1545253315.7,286047000.5,N
1545253335.5,286047000.0,N
1545253355.4,286047000.0,N
1545253375.2,286047000.5,N
1545253395.1,286047000.5,N
1545253396.0,286047000.5,N
1545253415.8,286047000.5,N
1545253435.6,286047000.6,N
1545253455.5,286047000.9,N
1545253475.3,286047001.1,N
1545253495.2,286047001.1,N
1545253515.9,286047000.9,N
1545253535.7,286047000.4,N
1545253555.6,286047000.1,N
1545253575.4,286047001.6,N
1545253595.3,286047002.1,N
1545253615.1,286047000.3,N
1545253616.0,286047000.3,N
1545253635.8,286047001.1,N
1545253655.7,286047000.8,N
1545253675.5,286047000.4,N
1545253695.4,286046998.1,N
1545253715.2,286047000.1,N
1545253735.0,286047002.2,N
1545253735.9,286047002.2,N
1545253755.8,286047001.4,N
1545253775.6,286047004.3,Y
1545253795.5,286047002.6,P
1545253815.3,286047004.2,P
1545253835.1,286047001.8,N
1545253855.9,286047004.3,Y
1545253875.7,286047001.2,P
1545253895.6,286046998.2,P
1545253915.4,286046998.1,N
1545253935.2,286047000.8,N
1545253955.1,286046997.0,N
1545253956.0,286046997.0,N
1545253975.8,286046997.5,N
1545253995.6,286046997.3,N
1545254015.5,286046996.8,N
1545254035.3,286046996.7,N
1545254055.2,286046996.7,N
1545254075.9,286046997.3,N
1545254095.7,286046996.6,N
1545254115.6,286046999.0,N
1545254135.4,286046996.8,N
1545254155.2,286046999.2,N
1545254175.1,286047000.8,N
1545254176.0,286047000.8,N
1545254195.8,286046999.3,N
1545254215.7,286046998.4,N
1545254235.5,286046998.7,N
1545254255.3,286046999.2,N
1545254275.2,286047001.2,N
1545254295.0,286046999.1,N
1545254295.9,286046999.1,N
1545254315.8,286046998.4,N
1545254335.6,286046998.4,N
1545254355.4,286046999.6,N
1545254375.3,286046999.5,N
1545254395.1,286046997.7,N
1545254415.9,286046999.6,N
1545254435.7,286046999.2,N
1545254455.5,286046999.3,N
1545254475.4,286046996.8,N
1545254495.2,286046997.9,N
1545254515.0,286046999.6,N
1545254515.9,286046999.6,N
1545254535.8,286046997.1,N
1545254555.6,286046996.7,N
1545254575.5,286046996.6,N
1545254595.3,286046996.9,N
1545254615.1,286046998.8,N
1545254635.9,286046997.0,N
1545254655.7,286046997.1,N
1545254675.6,286046999.1,N
1545254695.4,286046997.1,N
1545254715.2,286046999.2,N
1545254735.1,286046999.2,N
1545254736.0,286046999.2,N
1545254755.8,286046999.6,N
1545254775.6,286046999.0,N
1545254795.5,286046997.1,N
1545254815.3,286046996.6,N
1545254835.2,286046999.2,N
1545254855.9,286046999.6,N
1545254875.7,286046999.6,N
1545254895.6,286046998.6,N
1545254915.4,286046998.1,N
1545254935.2,286046999.5,N
1545254955.1,286046997.2,N
1545254956.0,286046997.2,N
1545254975.8,286046996.7,N
1545254995.7,286046997.0,N
1545255015.5,286046998.2,N
1545255035.3,286047000.8,N
1545255055.2,286046999.2,N
1545255075.0,286046999.3,N
1545255075.9,286046999.3,N
1545255095.7,286046996.7,N
1545255115.6,286046999.3,N
1545255135.4,286046996.9,N
1545255155.3,286047001.1,N
1545255175.1,286046998.2,N
1545255176.0,286046998.2,N
1545255195.8,286046998.8,N
1545255215.7,286046998.3,N
1545255235.5,286046999.4,N
1545255255.3,286046999.3,N
1545255275.2,286046999.2,N
1545255295.0,286046999.6,N
1545255295.9,286046999.6,N
1545255315.8,286046996.9,N
1545255335.6,286046999.1,N
1545255355.4,286046998.4,N
1545255375.3,286046999.5,N
1545255395.1,286046996.9,N
1545255415.9,286046996.9,N
1545255435.7,286046999.3,N
1545255455.5,286046999.0,N
1545255475.4,286046999.6,N
1545255495.2,286046997.4,N
1545255515.0,286046997.5,N
1545255516.0,286046997.5,N
1545255535.8,286046997.1,N
1545255555.6,286046996.6,N
1545255575.5,286046998.8,N
1545255595.3,286047001.0,N
1545255615.1,286047000.8,N
1545255635.9,286046998.2,N
1545255655.7,286047002.7,N
1545255675.6,286047002.2,N
1545255695.4,286047000.7,N
1545255715.2,286046998.1,N
1545255735.1,286046998.3,N
1545255736.0,286046998.3,N
1545255755.8,286046999.4,N
1545255775.7,286046998.6,N
1545255795.5,286046996.6,N
1545255815.3,286046996.8,N
1545255835.2,286046997.8,N
1545255855.9,286046997.7,N
1545255875.7,286046997.7,N
1545255895.6,286046997.6,N
1545255915.4,286046995.4,N
1545255935.3,286046997.8,N
1545255955.1,286046997.8,N
1545255956.0,286046997.8,N
1545255975.8,286046997.3,N
1545255995.7,286046997.1,N
1545256015.5,286046999.6,N
1545256035.3,286046999.2,N
1545256055.2,286046997.0,N
1545256075.0,286046997.3,N
1545256075.9,286046997.3,N
1545256095.8,286046999.5,N
1545256115.6,286046997.8,N
1545256135.4,286046997.2,N
1545256155.3,286046997.5,N
1545256175.1,286046997.5,N
1545256195.8,286046998.0,N
1545256215.7,286046995.7,Y
1545256235.5,286046996.8,P
1545256255.4,286046999.5,N
1545256275.2,286046998.7,N
1545256295.0,286046998.8,N
1545256295.9,286046998.8,N
1545256315.8,286046998.4,N
1545256335.6,286047001.2,N
1545256355.5,286047001.0,N
1545256375.3,286047000.8,N
1545256395.1,286047001.2,N
1545256415.9,286047001.0,N
1545256435.7,286047000.8,N
1545256455.5,286046999.2,N
1545256475.4,286046999.1,N
1545256495.2,286046999.1,N
1545256515.1,286047000.8,N
1545256516.0,286047000.8,N
1545256535.8,286047000.7,N
1545256555.6,286047000.6,N
1545256575.5,286047000.3,N
1545256595.3,286047000.3,N
1545256615.2,286047000.9,N
1545256635.9,286046998.9,N
1545256655.7,286046999.2,N
1545256675.6,286046997.0,N
1545256695.4,286046996.7,N
1545256715.2,286046997.0,N
1545256735.1,286046996.5,N
1545256736.0,286046996.5,N
1545256755.8,286046999.6,N
1545256775.7,286047001.0,N
1545256795.5,286046998.7,N
